Weather History for Taunton, MA

Change the Weather History Date:

Sunday, February 3, 2013

  Actual Average Record
Temperature  
Mean Temperature 27 °F -  
Max Temperature 33 °F 39 °F 56 °F (1970)
Min Temperature 21 °F 20 °F -13 °F (1961)
Degree Days  
Heating Degree Days 38    
Moisture  
Dew Point 19 °F    
Average Humidity 72    
Maximum Humidity 82    
Minimum Humidity 53    
Precipitation  
Precipitation 0.00 in - - ()
Sea Level Pressure  
Sea Level Pressure 29.84 in    
Wind  
Wind Speed 5 mph (NNW)    
Max Wind Speed 10 mph    
Max Gust Speed -    
Visibility 8 miles    
Events Snow    
Averages and records for this station are not official NWS values.
T = Trace of Precipitation, MM = Missing Value Source: NWS Daily Summary

Daily Weather History Graph

Daily Weather History Graph

Search for Another Location

Airport:

Trip Planner

Search our weather history database for the weather conditions in past years. The results will help you decide how hot, cold, wet, or windy it might be!

Date:

Astronomy

Feb. 03, 2013 Rise Set
Actual Time 6:54 AM EST 5:02 PM EST
Civil Twilight 6:24 AM EST 5:31 PM EST
Nautical Twilight 5:51 AM EST 6:04 PM EST
Astronomical Twilight 5:19 AM EST 6:37 PM EST
Moon 12:18 AM EST (2/3) 10:36 AM EST (2/3)
Length of Visible Light 11h 06m
Length of Day
10h 07m
Waning Gibbous, 49% of the Moon is Illuminated
Feb 3
Waning Gibbous
Feb 10
New
Feb 17
First Quarter
Feb 25
Full
Mar 4
Last Quarter

Hourly Weather History & Observations

Time (EST) Temp. Windchill Dew Point Humidity Pressure Visibility Wind Dir Wind Speed Gust Speed Precip Events Conditions
12:52 AM 28.0 °F 20.8 °F 12.9 °F 53% 30.04 in 10.0 mi WNW 6.9 mph - N/A   Overcast
1:52 AM 26.1 °F 16.2 °F 15.1 °F 63% 30.02 in 10.0 mi WNW 10.4 mph - N/A   Overcast
4:52 AM 25.0 °F 19.3 °F 17.1 °F 72% 29.98 in 5.0 mi NNW 4.6 mph - 0.00 in Snow Light Snow
5:52 AM 24.1 °F 19.7 °F 18.0 °F 77% 29.96 in 7.0 mi NNW 3.5 mph - 0.00 in   Overcast
6:10 AM 23.0 °F - 18.0 °F 81% 29.95 in 10.0 mi Calm Calm - N/A   Scattered Clouds
6:52 AM 21.9 °F - 17.1 °F 82% 29.95 in 10.0 mi Calm Calm - N/A   Clear
7:44 AM 21.0 °F - 16.0 °F 81% 29.97 in 8.0 mi Calm Calm - N/A   Mostly Cloudy
7:52 AM 21.9 °F - 17.1 °F 82% 29.97 in 8.0 mi Calm Calm - N/A   Mostly Cloudy
8:52 AM 25.0 °F 19.3 °F 19.0 °F 78% 29.96 in 10.0 mi NNW 4.6 mph - N/A   Overcast
9:52 AM 27.0 °F 23.0 °F 19.0 °F 72% 29.93 in 9.0 mi North 3.5 mph - N/A   Overcast
10:32 AM 28.0 °F 24.2 °F 19.9 °F 72% 29.91 in 10.0 mi NNW 3.5 mph - N/A   Overcast
10:52 AM 28.9 °F 23.9 °F 19.9 °F 69% 29.90 in 10.0 mi NW 4.6 mph - N/A   Overcast
11:52 AM 32.0 °F 25.6 °F 19.9 °F 61% 29.84 in 10.0 mi North 6.9 mph - N/A   Mostly Cloudy
12:01 PM 33.1 °F 27.7 °F 19.9 °F 59% 29.83 in 10.0 mi NNW 5.8 mph - N/A   Scattered Clouds
12:11 PM 33.1 °F 26.1 °F 19.9 °F 59% 29.83 in 10.0 mi North 8.1 mph - N/A   Mostly Cloudy
12:52 PM 33.1 °F 28.7 °F 19.9 °F 59% 29.82 in 10.0 mi NNW 4.6 mph - N/A   Mostly Cloudy
1:52 PM 30.9 °F 23.5 °F 19.9 °F 64% 29.79 in 10.0 mi NNW 8.1 mph - N/A   Overcast
2:52 PM 30.9 °F 24.3 °F 19.9 °F 64% 29.78 in 10.0 mi NNW 6.9 mph - N/A   Overcast
3:52 PM 30.0 °F 23.2 °F 19.9 °F 66% 29.77 in 10.0 mi North 6.9 mph - N/A   Overcast
4:52 PM 28.9 °F 21.9 °F 19.0 °F 67% 29.74 in 10.0 mi NNW 6.9 mph - N/A   Overcast
5:52 PM 28.0 °F 20.8 °F 19.0 °F 69% 29.76 in 10.0 mi NNW 6.9 mph - N/A   Overcast
6:52 PM 28.0 °F 20.8 °F 19.0 °F 69% 29.76 in 10.0 mi NW 6.9 mph - N/A   Overcast
7:52 PM 27.0 °F 21.6 °F 19.9 °F 75% 29.75 in 7.0 mi NW 4.6 mph - 0.00 in Snow Light Snow
8:52 PM 27.0 °F 17.3 °F 19.9 °F 75% 29.74 in 4.0 mi NW 10.4 mph - 0.00 in Snow Light Snow
9:52 PM 26.1 °F 17.6 °F 21.0 °F 81% 29.73 in 4.0 mi NNW 8.1 mph - 0.00 in Snow Light Snow
10:12 PM 26.1 °F 21.9 °F 21.0 °F 81% 29.73 in 2.5 mi WNW 3.5 mph - 0.00 in Snow Light Snow
10:52 PM 26.1 °F 18.4 °F 21.0 °F 81% 29.73 in 3.0 mi NW 6.9 mph - 0.00 in Snow Light Snow
11:20 PM 26.1 °F 20.5 °F 19.9 °F 78% 29.73 in 2.5 mi WNW 4.6 mph - 0.00 in Snow Light Snow
11:28 PM 26.1 °F 19.4 °F 19.9 °F 78% 29.73 in 5.0 mi WNW 5.8 mph - 0.00 in Snow Light Snow
11:52 PM 26.1 °F 20.5 °F 19.9 °F 78% 29.73 in 6.0 mi NW 4.6 mph - 0.00 in Snow Light Snow